Weather History for CWYY - March, 2013

Change the Weather History Date:

Friday, March 22, 2013

  Actual Average Record
Temperature  
Mean Temperature 35 °F -  
Max Temperature 47 °F - - ()
Min Temperature 23 °F - - ()
Degree Days  
Heating Degree Days 30    
Moisture  
Dew Point 22 °F    
Average Humidity 59    
Maximum Humidity 90    
Minimum Humidity 25    
Precipitation  
Precipitation 0.00 in - - ()
Sea Level Pressure  
Sea Level Pressure 30.20 in    
Wind  
Wind Speed 3 mph ()    
Max Wind Speed 12 mph    
Max Gust Speed 18 mph    
T = Trace of Precipitation, MM = Missing Value Source: Averaged Metar Reports

Daily Weather History Graph

Daily Weather History Graph

Search for Another Location

Airport or City:

Trip Planner

Search our weather history database for the weather conditions in past years. The results will help you decide how hot, cold, wet, or windy it might be!

Date:

Astronomy

Mar. 22, 2013 Rise Set
Actual Time 6:55 AM PDT 7:14 PM PDT
Civil Twilight 6:23 AM PDT 7:45 PM PDT
Nautical Twilight 5:46 AM PDT 8:23 PM PDT
Astronomical Twilight 5:07 AM PDT 9:02 PM PDT
Moon 2:26 PM PDT (3/22) 4:20 AM PDT (3/22)
Length of Visible Light 13h 22m
Length of Day
12h 18m
Waxing Gibbous, 78% of the Moon is Illuminated
Mar 22
Waxing Gibbous
Mar 27
Full
Apr 2
Last Quarter
Apr 10
New
Apr 18
First Quarter

Hourly Weather History & Observations

Time (PDT) Temp. Windchill Dew Point Humidity Pressure Visibility Wind Dir Wind Speed Gust Speed Precip Events Conditions
12:00 AM 33.1 °F - 25.9 °F 75% 30.09 in - ENE 2.3 mph - N/A   Unknown
1:00 AM 32.0 °F - 26.1 °F 79% 30.10 in - ENE 1.2 mph - N/A   Unknown
2:00 AM 28.2 °F - 23.5 °F 83% 30.12 in - ENE 1.2 mph - N/A   Unknown
3:00 AM 26.6 °F - 23.2 °F 87% 30.13 in - Calm Calm - N/A   Unknown
4:00 AM 26.4 °F - 23.5 °F 89% 30.13 in - ENE 1.2 mph - N/A   Unknown
5:00 AM 25 °F - 22 °F 82% 30.15 in - Calm Calm - -  
5:00 AM 24.8 °F - 21.7 °F 88% 30.15 in - Calm Calm - N/A   Unknown
6:00 AM 25.7 °F - 23.0 °F 89% 30.17 in - ESE 1.2 mph - N/A   Unknown
7:00 AM 23.7 °F - 21.2 °F 90% 30.19 in - ESE 1.2 mph - N/A   Unknown
8:00 AM 27.1 °F - 23.2 °F 85% 30.20 in - NNE 2.3 mph - N/A   Unknown
9:00 AM 33.1 °F 27.7 °F 24.3 °F 70% 30.21 in - North 5.8 mph - N/A   Unknown
10:00 AM 37.4 °F 32.8 °F 25.5 °F 62% 30.20 in - NNW 5.8 mph - N/A   Unknown
11:00 AM 41 °F - 23 °F 35% 30.20 in - NNW 5.8 mph - -  
11:00 AM 41.0 °F 37.1 °F 22.6 °F 48% 30.20 in - NNW 5.8 mph - N/A   Unknown
12:00 PM 44.2 °F 40.3 °F 22.1 °F 42% 30.19 in - NW 6.9 mph - N/A   Unknown
1:00 PM 44.8 °F 39.0 °F 16.2 °F 32% 30.18 in - NW 11.5 mph - N/A   Unknown
2:00 PM 43.7 °F 37.7 °F 22.6 °F 43% 30.19 in - NW 11.5 mph 18.4 mph N/A   Unknown
3:00 PM 46.2 °F 44.1 °F 19.0 °F 34% 30.19 in - WNW 4.6 mph - N/A   Unknown
4:00 PM 45.5 °F 40.8 °F 18.1 °F 34% 30.21 in - NNW 9.2 mph - N/A   Unknown
5:00 PM 45 °F - 20 °F 25% 30.22 in - NW 8.1 mph - -  
5:00 PM 44.8 °F 40.4 °F 20.5 °F 38% 30.22 in - NW 8.1 mph - N/A   Unknown
6:00 PM 44.1 °F 40.1 °F 18.5 °F 36% 30.23 in - NNW 6.9 mph - N/A   Unknown
7:00 PM 42.1 °F 36.1 °F 20.5 °F 42% 30.25 in - North 10.4 mph - N/A   Unknown
8:00 PM 41.0 °F 38.0 °F 21.0 °F 45% 30.27 in - NNW 4.6 mph - N/A   Unknown
9:00 PM 39.4 °F 37.2 °F 22.6 °F 51% 30.30 in - NW 3.5 mph - N/A   Unknown
10:00 PM 37.9 °F 34.4 °F 22.6 °F 54% 30.31 in - NW 4.6 mph - N/A   Unknown
11:00 PM 38 °F - 24 °F 45% 30.32 in - NW 4.6 mph - -  
11:00 PM 37.8 °F 34.2 °F 24.3 °F 58% 30.32 in - NW 4.6 mph - N/A   Unknown